Location: Forst
(46.9333°N, 15.4333°E)
Time: 06:13:24
(UTC+00:00)

Okean-O - Pass Details

Date: 01 December 2020
Orbit: 639 x 640 km, 98.2° (Epoch: 18 January)

Event Time Altitude Azimuth Distance (km) Brightness Sun altitude
Rises 16:21:31 0° 128° (SE) 2,937 5.7 -11.6°
Reaches altitude 10° 16:24:06 10° 113° (ESE) 2,032 4.8 -12.0°
Maximum altitude 16:27:30 22° 63° (ENE) 1,402 3.8 -12.6°
Drops below altitude 10° 16:30:54 10° 13° (NNE) 2,044 4.9 -13.1°
Sets 16:33:30 0° 358° (N) 2,958 5.9 -13.5°
